Appleton, WI

12:20 AM CST on December 06, 2019 (GMT -0600)
Outagamie County Regional

Weather History for KATW - November, 2019

Change the Weather History Date:

Tuesday, November 19, 2019

  Actual Average Record
Temperature  
Mean Temperature 32 °F -  
Max Temperature 33 °F 41 °F 66 °F (1953)
Min Temperature 30 °F 26 °F 4 °F (1986)
Degree Days  
Heating Degree Days 34    
Moisture  
Dew Point 27 °F    
Average Humidity 85    
Maximum Humidity 93    
Minimum Humidity 75    
Precipitation  
Precipitation 0.00 in - - ()
Sea Level Pressure  
Sea Level Pressure 29.80 in    
Wind  
Wind Speed 3 mph ()    
Max Wind Speed 7 mph    
Max Gust Speed -    
Visibility 8.9 miles    
Events      
Averages and records for this station are not official NWS values.
T = Trace of Precipitation, MM = Missing Value Source: Averaged Metar Reports

Daily Weather History Graph

Daily Weather History Graph

Search for Another Location

Airport or City:

Astronomy

Nov. 19, 2019 Rise Set
Actual Time 6:54 AM CST 4:23 PM CST
Civil Twilight 6:23 AM CST 4:55 PM CST
Nautical Twilight 5:47 AM CST 5:30 PM CST
Astronomical Twilight 5:13 AM CST 6:05 PM CST
Moon 11:21 PM CST (11/19) 1:03 PM CST (11/19)
Length of Visible Light 10h 32m
Length of Day
9h 29m
Waning Gibbous, 51% of the Moon is Illuminated
Nov 19
Waning Gibbous
Nov 19
Last Quarter
Nov 26
New
Dec 4
First Quarter
Dec 11
Full

Hourly Weather History & Observations

Time (CST) Temp. Windchill Dew Point Humidity Pressure Visibility Wind Dir Wind Speed Gust Speed Precip Events Conditions
12:35 AM 32.0 °F 27.5 °F 28.4 °F 87% 29.72 in 10.0 mi West 4.6 mph - N/A   Overcast
12:55 AM 32.0 °F 26.4 °F 26.6 °F 80% 29.72 in 10.0 mi WNW 5.8 mph - N/A   Overcast
1:15 AM 32.0 °F 26.4 °F 26.6 °F 80% 29.72 in 10.0 mi West 5.8 mph - N/A   Overcast
1:55 AM 32.0 °F 28.7 °F 26.6 °F 80% 29.71 in 10.0 mi WNW 3.5 mph - N/A   Overcast
2:15 AM 32.0 °F 27.5 °F 26.6 °F 80% 29.72 in 10.0 mi WNW 4.6 mph - N/A   Overcast
2:35 AM 32.0 °F - 26.6 °F 80% 29.71 in 10.0 mi Calm Calm - N/A   Overcast
2:55 AM 32.0 °F 27.5 °F 26.6 °F 80% 29.71 in 10.0 mi WNW 4.6 mph - N/A   Overcast
3:15 AM 32.0 °F 26.4 °F 26.6 °F 80% 29.71 in 10.0 mi WNW 5.8 mph - N/A   Overcast
3:35 AM 30.2 °F 23.4 °F 26.6 °F 86% 29.72 in 10.0 mi West 6.9 mph - N/A   Overcast
3:55 AM 30.2 °F 25.4 °F 26.6 °F 86% 29.72 in 10.0 mi West 4.6 mph - N/A   Overcast
4:15 AM 30.2 °F 25.4 °F 26.6 °F 86% 29.72 in 10.0 mi WSW 4.6 mph - N/A   Overcast
4:35 AM 30.2 °F 25.4 °F 26.6 °F 86% 29.72 in 10.0 mi WSW 4.6 mph - N/A   Overcast
4:55 AM 30.2 °F 24.3 °F 26.6 °F 86% 29.73 in 10.0 mi West 5.8 mph - N/A   Overcast
5:15 AM 30.2 °F 26.7 °F 28.4 °F 93% 29.73 in 10.0 mi WSW 3.5 mph - N/A   Overcast
5:20 AM 30.2 °F 26.7 °F 26.6 °F 86% 29.73 in 10.0 mi SW 3.5 mph - N/A   Overcast
5:45 AM 30.2 °F - 26.6 °F 86% 29.73 in 10.0 mi Calm Calm - N/A   Overcast
6:45 AM 30.2 °F - 28.4 °F 93% 29.74 in 10.0 mi Calm Calm - N/A   Overcast
7:45 AM 30.2 °F - 28.4 °F 93% 29.75 in 7.0 mi Calm Calm - N/A   Overcast
8:45 AM 30.2 °F - 28.4 °F 93% 29.76 in 7.0 mi Calm Calm - N/A   Overcast
9:45 AM 30.2 °F - 28.4 °F 93% 29.78 in 7.0 mi Calm Calm - N/A   Overcast
10:45 AM 30.2 °F 24.3 °F 28.4 °F 93% 29.80 in 7.0 mi WNW 5.8 mph - N/A   Overcast
11:45 AM 30.2 °F 25.4 °F 28.4 °F 93% 29.80 in 7.0 mi Variable 4.6 mph - N/A   Overcast
12:45 PM 30.2 °F - 26.6 °F 86% 29.80 in 7.0 mi Calm Calm - N/A   Overcast
1:45 PM 32.0 °F - 24.8 °F 75% 29.81 in 7.0 mi Calm Calm - N/A   Overcast
2:45 PM 32.0 °F - 24.8 °F 75% 29.83 in 7.0 mi Calm Calm - N/A   Overcast
3:45 PM 32.0 °F 28.7 °F 26.6 °F 80% 29.86 in 7.0 mi Variable 3.5 mph - N/A   Overcast
4:45 PM 32.0 °F 28.7 °F 26.6 °F 80% 29.87 in 7.0 mi Variable 3.5 mph - N/A   Overcast
6:45 PM 33.8 °F 30.8 °F 26.6 °F 75% 29.90 in 10.0 mi Variable 3.5 mph - N/A   Overcast
8:45 PM 33.8 °F 30.8 °F 26.6 °F 75% 29.93 in 10.0 mi Variable 3.5 mph - N/A   Overcast
9:45 PM 33.8 °F - 26.6 °F 75% 29.94 in 10.0 mi Calm Calm - N/A   Overcast
10:45 PM 33.8 °F - 28.4 °F 81% 29.95 in 10.0 mi Calm Calm - N/A   Overcast
10:55 PM 32.0 °F - 28.4 °F 87% 29.95 in 10.0 mi Calm Calm - N/A   Overcast
11:15 PM 32.0 °F - 28.4 °F 87% 29.96 in 7.0 mi Calm Calm - N/A   Overcast
11:35 PM 32.0 °F 27.5 °F 30.2 °F 93% 29.97 in 7.0 mi SW 4.6 mph - N/A   Overcast
11:55 PM 32.0 °F 27.5 °F 30.2 °F 93% 29.98 in 7.0 mi WSW 4.6 mph - N/A   Overcast